Weather Roundup
Issued by NWS Chicago, IL

Home | Current Version | Previous Version | Graphics & Text | Print | Product List | Glossary On
Versions: 1 2 3 4 5 6 7 8 9 10 11 12 13 14 15 16 17 18 19 20 21 22 23 24 25 26 27 28 29 30 31 32 33 34 35 36 37 38 39 40 41 42 43 44 45 46 47 48 49 50
032
NZUS59 KLOT 250508
HRRLOT

CHICAGO AREA WEATHER ROUNDUP
NATIONAL WEATHER SERVICE CHICAGO/ROMEOVILLE IL
1200 AM CDT MON JUL 25 2016

NOTE: "FAIR" INDICATES FEW OR NO CLOUDS BELOW 12,000 FEET WITH NO
SIGNIFICANT WEATHER AND/OR OBSTRUCTIONS TO VISIBILITY.

* THESE STATIONS ARE NOT UNDER NWS QUALITY CONTROL. THEY ALSO MAY NOT
  REPORT WEATHER SUCH AS PRECIPITATION OR FOG.

ILZ005-006-012>014-019>023-250600-
NORTHEAST ILLINOIS

CITY           SKY/WX    TMP DP  RH WIND       PRES   REMARKS
OHARE          CLOUDY    76  68  76 SW8       29.92R
MIDWAY         CLOUDY    76  67  73 S15       29.93R
AURORA         CLOUDY    75  69  81 S8        29.95R
LANSING*       CLOUDY    73  66  77 S12       29.95R
JOLIET*        CLOUDY    75  67  76 S8        29.96R
WAUKEGAN       CLOUDY    78  72  81 VRB3      29.91R HX  80
DUPAGE AIRPORT CLOUDY    75  66  73 S9        29.93R
WHEELING       CLOUDY    78  67  68 SW6       29.92R HX  80
KANKAKEE*      CLOUDY    69  65  86 S15       29.99R
MORRIS*        CLOUDY    73  68  86 S8        29.95R
LEWIS AIRPORT* CLOUDY    73  64  72 S10G18    29.96R
NORTHERLY ISL    N/A     76  66  71 S8          N/A
$$

WIZ051-052-058>065-066-070>072-250600-
SOUTHEAST WISCONSIN

CITY           SKY/WX    TMP DP  RH WIND       PRES   REMARKS
MILWAUKEE      CLOUDY    82  67  60 NW7       29.90R HX  84
KENOSHA*       CLOUDY    76  68  76 W6        29.92R
RACINE*        CLOUDY    79  68  69 NW8       29.91R HX  81
BURLINGTON     CLOUDY    76  68  77 CALM      29.92R
WAUKESHA       CLOUDY    73  64  73 W8        29.93R
$$

INZ001>003-010>013-019-020-250600-
NORTHWEST INDIANA

CITY           SKY/WX    TMP DP  RH WIND       PRES   REMARKS
GARY*          CLOUDY    75  74  98 S9        29.95R
MICHIGAN CITY* NOT AVBL
RENSSELAER*    NOT AVBL
VALPARAISO     LGT RAIN  72  69  90 S13       29.97R
$$

LMZ740>746-250600-
SOUTHERN LAKE MICHIGAN

STATION/POSITION TIME  SKY/WX   TEMP WIND        PRES    VSBY
                                AIR  DIR/SP/G
                 (UTC)          (F)  (DEG/KT/KT) (MB)    (MI)
HARRISON CRIB    0400            78  210/ 16/ 18   N/A
BURNHAM HARBOR   0500            76  170/ 10       N/A
CALUMET HARBOR   0400            76  210/  7/  9 1012.4R
BURNS HARBOR     0500            74  190/ 18/ 22 1014.2R
MICHIGAN CITY    0400            77  160/  9/ 13   N/A
$$

ABBREVIATIONS USED IN REMARKS
   TC - TEMPERATURE IN CELSIUS
  WCI - WIND CHILL INDEX
   HX - HEAT INDEX
  VSB - VISIBILITY
$$




USA.gov is the U.S. government's official web portal to all federal, state and local government web resources and services.